Regional Weather Roundup
Issued by NWS

Home | Current Version | Previous Version | Graphics & Text | Print | Product List | Glossary On
Versions: 1 2 3 4 5 6 7 8 9 10 11 12 13 14 15 16 17 18 19 20 21 22 23 24 25 26 27 28 29 30 31 32 33 34 35 36 37 38 39 40 41 42 43 44 45 46 47 48 49 50
000
ASUS43 KFSD 252202
RWRSD

WEATHER ROUNDUP FOR SOUTH DAKOTA
NATIONAL WEATHER SERVICE SIOUX FALLS SD
500 PM CDT TUE APR 25 2017

NOTE: "FAIR" INDICATES FEW OR NO CLOUDS BELOW 12,000 FEET WITH NO
SIGNIFICANT WEATHER AND/OR OBSTRUCTIONS TO VISIBILITY.


SDZ001>005-009-010-012>017-252300-
NORTHWEST AND NORTH CENTRAL SOUTH DAKOTA

CITY           SKY/WX    TMP DP  RH WIND       PRES   REMARKS
BUFFALO          N/A     29  27  92 N16       29.80R WCI  17
FAITH            N/A     28  28 100 N20       29.82F WCI  15
MOBRIDGE       CLOUDY    35  25  66 N20G28    29.81S WCI  24
$$

SDZ012>016-024>037-041>051-057-063-072>074-252300-
SOUTHWEST AND SOUTH CENTRAL SOUTH DAKOTA

CITY           SKY/WX    TMP DP  RH WIND       PRES   REMARKS
RAPID CTY ARPT LGT SNOW  28  25  88 N20       29.82R VSB 3/4 WCI  15
PIERRE         FLURRIES  36  28  73 N22G30    29.77S
CUSTER         CLOUDY    29  23  78 N7        29.69S HAZE    WCI  22
ELLSWORTH AFB  LGT SNOW  28  28 100 N18       29.82  VSB 1   WCI  16
PHILIP         LGT SNOW  32  30  92 N18       29.82R FOG     WCI  20
PINE RIDGE     LGT SNOW  35  30  82 N17G25    29.75R WCI  25
SPEARFISH      LGT SNOW  27  23  86 N7        29.84R WCI  19
WINNER         CLOUDY    37  31  78 N20       29.73S
$$

SDZ004>011-016>023-039-040-252300-
NORTHEAST SOUTH DAKOTA

CITY           SKY/WX    TMP DP  RH WIND       PRES   REMARKS
ABERDEEN       CLOUDY    35  27  72 N21G29    29.76R WCI  24
WATERTOWN      CLOUDY    35  31  85 N17       29.67R WCI  25
BROOKINGS      MIX PCPN  36  34  92 N18G28    29.63F
SISSETON         N/A     37  32  82 N22G32    29.71R
$$

SDZ017-020-022-023-036>040-048>070-252300-
SOUTHEAST SOUTH DAKOTA

CITY           SKY/WX    TMP DP  RH WIND       PRES   REMARKS
SIOUX FALLS    LGT RAIN  41  40  96 N17       29.61S
HURON          CLOUDY    37  31  78 N22G29    29.71F
CHAMBERLAIN    CLOUDY    39  33  80 NW17G25   29.73S
MITCHELL       CLOUDY    39  33  79 N21G29    29.69R
YANKTON        CLOUDY    41  36  81 NW16G25   29.63R
$$

ABBREVIATIONS USED IN REMARKS
   TC - TEMPERATURE IN CELSIUS
  WCI - WIND CHILL INDEX
   HX - HEAT INDEX
  VSB - VISIBILITY




USA.gov is the U.S. government's official web portal to all federal, state and local government web resources and services.